カタログに戻る

STARLINK-3174

運用中通信VLEO
NORAD 51468·PAYLOAD·🇺🇸 United States

打ち上げ Feb 3, 2022 から Cape Canaveral Space Force Station

Loading…

次のパス (今後24時間)

TLE

最新Source: CelesTrak SupGP

元期: Sep 14, 2026, 13:18 UTC

1 51468C 22010N   26257.55465278  .00044054  00000+0  13016-2 0  2579
2 51468  53.1592 143.1735 0001242  95.4188 269.2001 15.34368750    12

AllMySatでSTARLINK-3174をリアルタイム追跡

Download on the App Store